SL-14 DEB, 45301

Orbit data source: Space-Track

SL-14 DEB, 45301 is space debris in LEO originally from a launch on Thu, 15 Aug 1991 UTC launched from the Plesetsk Missile And Space Complex (PKMTR). Debris objects in space refer to the collection of defunct objects orbiting the Earth. Examples of debris include non-operational satellites, rocket bodies, and fragments generated from explosions, collisions, or faulty payload assembly.

Loading next visibility...
Identifier
45301, 1991-056AP
Orbit
LEO
Country
Flag of CISCIS
Related business
Manufacturer
Unknown
Mission
Spacecraft
Bus & Motor
Unknown
Mass
Unknown
Launch date (UTC)
1991-08-15 (34 years ago)
Launch vehicle
Unknown
Launch site
Plesetsk Missile And Space Complex (PKMTR)
Object type
Payload
Rocket body
Debris
Shape & HBR
Unknown shape, 0.6 m
Radar Cross Section
Medium (>0.1 m² and <1 m²)

Expand to show TLE details & history
Last TLE update: 7 hours ago

TLE from 7 hours ago
0 SL-14 DEB
1 45301U 91056AP  25353.90325942  .00004045  00000-0  48362-2 0  9994
2 45301  82.4951 158.9972 0172027 169.2235 191.2676 13.60805989288551
Epoch: 2025-12-19T21:40Z
TLE epoch observation values (Epoch: 2025-12-19T21:40:41.613Z)
Latitude
-0.00002°
Longitude
105.08607°
Altitude
1,160.77 km
Speed
7.211 km/s
True Right ascension
10h 35m 59s
True Declination
0° 00' 00"
Sunlit
Object was in daylight at epoch
Visualization orbit readout
Latitude
Unknown
Longitude
Unknown
Altitude
Unknown
Speed
Unknown
Apparent Right ascension
Unknown
Apparent Declination
Unknown
Sunlit
N/A
Visualization observer readout
Local Sidereal Time
03:16:05
Azimuth
Unknown
Elevation
Unknown
Doppler factor
Unknown
Orbital elements
Apogee altitude
1,157.388 km
Perigee altitude
902.51 km
Semi-major axis
7,408.086 km
Eccentricity
0.0172
Inclination
82.4951°
RAAN
158.9972°
Arg. of periapsis
169.2235°
True anomaly
190.89039°
Mean anomaly
191.2676°
Eccentric anomaly
191.07821°
Mean motion
3.40396 °/min
Orbital period
105.76 mins
BSTAR
0.0048362
Loading maneuver chart data...
Computing Atmospheric mass density...
Loading historical data...
Loading historical data...
Loading historical data...
Loading historical data...
Loading historical data...
Loading historical data...
Loading historical data...

Documentation

Showing up to 5 results
|